ARIANE 44LP DEB, 26812

Orbit data source: Space-Track

ARIANE 44LP DEB, 26812 is space debris in HEO originally from a launch on Sun, 11 Dec 1988 UTC launched from the French Guiana (FRGUI). Debris objects in space refer to the collection of defunct objects orbiting the Earth. Examples of debris include non-operational satellites, rocket bodies, and fragments generated from explosions, collisions, or faulty payload assembly.

Loading next visibility...
Identifier
26812, 1988-109P
Orbit
HEO
Country
Flag of FRFR
Related business
Manufacturer
Unknown
Mission
Spacecraft
Bus & Motor
Unknown
Mass
Unknown
Launch date (UTC)
1988-12-11 (37 years ago)
Launch vehicle
Unknown
Launch site
French Guiana (FRGUI)
Object type
Payload
Rocket body
Debris
Shape & HBR
Unknown
Radar Cross Section
Medium (>0.1 m² and <1 m²)

Expand to show TLE details & history
Last TLE update: 23 hours ago

TLE from 23 hours ago
0 ARIANE 44LP DEB
1 26812U 88109P   25258.16292860 -.00000074  00000-0  00000-0 0  9993
2 26812   6.4634 264.0065 7011490  30.4081  75.4772  2.21684518224091
Epoch: 2025-09-15T03:54Z
TLE epoch observation values (Epoch: 2025-09-15T03:54:37.031Z)
Latitude
0.07485°
Longitude
30.14919°
Altitude
25,114.751 km
Speed
3.045 km/s
True Right ascension
05h 32m 42s
True Declination
0° 04' 29"
Sunlit
Object was in daylight at epoch
Visualization orbit readout
Latitude
Unknown
Longitude
Unknown
Altitude
Unknown
Speed
Unknown
Apparent Right ascension
Unknown
Apparent Declination
Unknown
Sunlit
N/A
Visualization observer readout
Local Sidereal Time
19:30:06
Azimuth
Unknown
Elevation
Unknown
Doppler factor
Unknown
Orbital elements
Apogee altitude
35,895.675 km
Perigee altitude
1,048.356 km
Semi-major axis
24,850.152 km
Eccentricity
0.70115
Inclination
6.4634°
RAAN
264.0065°
Arg. of periapsis
30.4081°
True anomaly
148.75009°
Mean anomaly
75.4772°
Eccentric anomaly
112.57259°
Mean motion
0.55405 °/min
Orbital period
649.76 mins
BSTAR
0
Loading maneuver chart data...
Computing Atmospheric mass density...
Loading historical data...
Loading historical data...
Loading historical data...
Loading historical data...
Loading historical data...
Loading historical data...
Loading historical data...

Documentation

Showing up to 5 results
|